Regional Weather Roundup
Issued by NWS

Home | Current Version | Previous Version | Text Only | Print | Product List | Glossary Off
Versions: 1 2 3 4 5 6 7 8 9 10 11 12 13 14 15 16 17 18 19 20 21 22 23 24 25 26 27 28 29 30 31 32 33 34 35 36 37 38 39 40 41 42 43 44 45 46 47 48 49 50

000
ASUS43 KLSX 260759
RWRMO

WEATHER SUMMARY FOR MISSOURI
NATIONAL WEATHER SERVICE SPRINGFIELD MO
300 AM CDT WED APR 26 2017

NOTE: "FAIR" INDICATES FEW OR NO CLOUDS BELOW 12,000 FEET WITH NO
       SIGNIFICANT WEATHER AND/OR OBSTRUCTIONS TO VISIBILITY.
       CURRENT SKY AND/OR WEATHER CONDITIONS ARE NOT AVAILABLE FOR
       CHILLICOTHE AND FARMINGTON.

MOZ001>031-035>038-043-044-053-054-260900-
...NORTHERN AND WESTERN MISSOURI...

CITY           SKY/WX    TMP DP  RH WIND       PRES   REMARKS
KANSAS CTY INT CLOUDY    46  45  96 N15G23    29.50F
KANSAS C DTWN  CLOUDY    49  46  90 N10G18    29.48S
LEE`S SUMMIT   LGT RAIN  49  49 100 NW20      29.47F
ST JOSEPH      LGT RAIN  45  44  97 N10       29.54S
CHILLICOTHE      N/A     52  50  93 VRB6      29.47F
KIRKSVILLE     CLOUDY    61  56  83 S7        29.44R

$$
MOZ066>068-077>081-088>096-101>105-260900-
...SOUTHWEST MISSOURI...

CITY           SKY/WX    TMP DP  RH WIND       PRES   REMARKS
SPRINGFIELD    TSTM      58  57  97 E8        29.55F
JOPLIN         CLOUDY    60  59  96 SE8       29.44R

$$
MOZ032>034-039>042-045>050-055>058-069>072-260900-
...CENTRAL MISSOURI...

CITY           SKY/WX    TMP DP  RH WIND       PRES   REMARKS
COLUMBIA       TSTM      60  59  96 W15G44    29.48R FOG
JEFFERSON CITY TSTM      64  59  83 W18G28    29.48R
ROLLA          MOCLDY    66  56  70 S14G22    29.46F
SEDALIA        LGT RAIN  63  62  97 SW8       29.51R
WHITEMAN AFB   LGT RAIN  61  61 100 SE9       29.47R
OSAGE BEACH    TSTM      59  58  96 W12       29.57R

$$
MOZ051-052-059>065-260900-
...EAST CENTRAL MISSOURI...

CITY           SKY/WX    TMP DP  RH WIND       PRES   REMARKS
ST LOUIS INTL  MOCLDY    70  52  52 S12       29.47F
SPIRIT OF STL  CLOUDY    69  54  58 S8        29.45F
ST CHARLES     CLOUDY    67  53  61 S7        29.46F

$$
MOZ072>076-082>087-097>100-106>115-260900-
...SOUTH CENTRAL AND SOUTHEAST MISSOURI...

CITY           SKY/WX    TMP DP  RH WIND       PRES   REMARKS
CAPE GIRARDEAU CLOUDY    68  54  60 S16G22    29.56F
FARMINGTON     MOCLDY    66  54  65 S10       29.52F
POPLAR BLUFF   CLOUDY    67  58  72 S7        29.55S
WEST PLAINS    CLOUDY    66  56  70 S7        29.58R

$$




USA.gov is the U.S. government's official web portal to all federal, state and local government web resources and services.